shenyang , China , ASIA

  • Tuesday
    March 26

      Cloudy

      32 °F

      Northeast

      3~4L 

  • Wednesday
    March 27

    Sunny  Sunny

    48 °F  25 °F

    No wind  No wind

    5~6L   3~4L 

  • Thursday
    March 28

    Sunny  Sunny

    50 °F  27 °F

    Northwest  South

    3~4L    

  • Friday
    March 29

    Sunny  Cloudy

    54 °F  30 °F

    Southwest  East

    3~4L    

  • Saturday
    March 30

    Cloudy  Sunny

    43 °F  27 °F

    Northwest  Northwest

    4~5L   3~4L 

  • Sunday
    March 31

    Sunny  Sunny

    46 °F  28 °F

    Northwest  Southwest

    4~5L    

  • Monday
    April 1

    Sunny  Sunny

    52 °F  32 °F

    Southwest  Southwest

    4~5L   3~4L 

Date   Weather Temperature Humidity Total_rain Visibility Wind
23:00 Cloudy 32°F 69.8% 0mm 999.9km Southeast  1.8m/s
02:00 Cloudy 34°F 74.6% 0mm 999.9km Northeast  1.4m/s
05:00 Cloudy 36°F 76.7% 0mm 999.9km Northeast  1.8m/s
08:00 Cloudy 42°F 62.4% 0mm 999.9km Northeast  3.2m/s
11:00 Sunny 48°F 50.6% 0mm 999.9km Northeast  3.8m/s
14:00 Sunny 46°F 46.3% 0mm 999.9km Northeast  4.0m/s
17:00 Sunny 45°F 41.9% 0mm 999.9km Northeast  4.3m/s
20:00 Sunny 41°F 35.2% 0mm 999.9km Northeast  3.5m/s
23:00 Sunny 35°F 69.2% 0mm 999.9km Northeast  1.2m/s
02:00 Sunny 31°F 69.1% 0mm 999.9km Northwest  0.6m/s
05:00 Sunny 25°F 64% 0mm 999.9km Northwest  1.0m/s
08:00 Sunny 35°F 59% 0mm 999.9km Northwest  0.9m/s
11:00 Sunny 45°F 42.9% 0mm 999.9km Northwest  2.1m/s
14:00 Sunny 50°F 36% 0mm 999.9km Northwest  2.8m/s
17:00 Sunny 49°F 33.4% 0mm 999.9km Northwest  2.0m/s
20:00 Sunny 41°F 30.9% 0mm 999.9km Southeast  0.5m/s
23:00 Sunny 36°F 66.3% 0mm 999.9km Southeast  9999.0m/s
02:00 Sunny 29°F 70.7% 0mm 999.9km Southeast  0.6m/s
05:00 Sunny 27°F 75.3% 0mm 999.9km Southeast  1.1m/s
08:00 Sunny 40°F 54.2% 0mm 999.9km Northeast  2.2m/s
11:00 Sunny 47°F 41.2% 0mm 999.9km Northwest  2.3m/s
14:00 Sunny 53°F 36% 0mm 999.9km Northwest  2.9m/s
17:00 Sunny 50°F 38.9% 0mm 999.9km Northeast  1.2m/s
20:00 Sunny 43°F 32% 0mm 999.9km Northeast  0.8m/s
23:00 Cloudy 36°F 61.3% 0mm 999.9km Northeast  1.5m/s
02:00 Cloudy 33°F 63.7% 0mm 999.9km Northeast  1.5m/s
05:00 Cloudy 31°F 66.2% 0mm 999.9km Northeast  2.0m/s
08:00 Cloudy 36°F 56.7% 0mm 999.9km Northwest  2.0m/s
11:00 Cloudy 39°F 41.4% 0mm 999.9km Northwest  3.8m/s
14:00 Cloudy 42°F 39.8% 0mm 999.9km Northwest  3.3m/s
17:00 Cloudy 42°F 31.7% 0mm 999.9km Northwest  3.9m/s
20:00 Cloudy 38°F 28.2% 0mm 999.9km Northwest  2.3m/s
23:00 Sunny 34°F 63.9% 0mm 999.9km Northwest  2.0m/s
02:00 Sunny 32°F 61.2% 0mm 999.9km Northwest  1.6m/s
05:00 Sunny 27°F 58.4% 0mm 999.9km Northwest  1.3m/s
08:00 Sunny 33°F 48.8% 0mm 999.9km Northwest  1.8m/s
11:00 Sunny 43°F 37.8% 0mm 999.9km Northwest  2.9m/s
14:00 Sunny 45°F 30.5% 0mm 999.9km Northwest  3.2m/s
17:00 Sunny 46°F 36.2% 0mm 999.9km Northwest  3.4m/s
20:00 Sunny 40°F 27.4% 0mm 999.9km Southwest  1.1m/s
23:00 Sunny 33°F 56.4% 0mm 999.9km Northeast  1.2m/s
02:00 Sunny 31°F 72.4% 0mm 999.9km Southwest  1.2m/s
05:00 Sunny 29°F 66.2% 0mm 999.9km Northeast  1.2m/s
08:00 Sunny 38°F 56.2% 0mm 999.9km Northeast  2.3m/s
11:00 Sunny 47°F 45.7% 0mm 999.9km Northwest  2.4m/s
14:00 Sunny 50°F 43.3% 0mm 999.9km Northwest  2.9m/s
17:00 Sunny 51°F 45.7% 0mm 999.9km Northwest  3.1m/s
20:00 Sunny 43°F 36.3% 0mm 999.9km Northeast  1.3m/s
23:00 Sunny 33°F 49.8% 0mm 999.9km Southwest  0.3m/s
02:00 Sunny 32°F 75% 0mm 999.9km Southeast  1.1m/s
05:00 Sunny 35°F 70.2% 0mm 999.9km Southwest  1.0m/s